Time,TemperatureF,DewpointF,PressureIn,WindDirection,WindDirectionDegrees,WindSpeedMPH,WindSpeedGustMPH,Humidity,HourlyPrecipIn,Conditions,Clouds,dailyrainin,SoftwareType,DateUTC
2013-05-10 00:00:00,47.4,46.6,29.86,NE,56,2.0,2.0,97,0.06,,,0.00,Wunderground v.1.15,2013-05-10 05:00:00,
2013-05-10 00:05:00,47.3,46.5,29.86,ENE,71,2.0,2.0,97,0.04,,,0.00,Wunderground v.1.15,2013-05-10 05:05:00,
2013-05-10 00:10:00,47.2,46.4,29.86,NE,53,2.0,2.0,97,0.04,,,0.01,Wunderground v.1.15,2013-05-10 05:10:00,
2013-05-10 00:15:00,47.2,46.4,29.86,ENE,59,1.0,2.0,97,0.04,,,0.01,Wunderground v.1.15,2013-05-10 05:15:00,
2013-05-10 00:19:00,47.2,46.4,29.86,NE,55,1.0,1.0,97,0.04,,,0.01,Wunderground v.1.15,2013-05-10 05:19:00,
2013-05-10 00:25:00,47.2,46.7,29.86,NE,43,1.0,6.0,98,0.04,,,0.02,Wunderground v.1.15,2013-05-10 05:25:00,
2013-05-10 00:30:00,47.1,46.6,29.86,NE,48,1.0,3.0,98,0.10,,,0.03,Wunderground v.1.15,2013-05-10 05:30:00,
2013-05-10 00:35:00,47.1,46.6,29.86,NE,47,1.0,3.0,98,0.14,,,0.04,Wunderground v.1.15,2013-05-10 05:35:00,
2013-05-10 00:40:00,47.1,46.6,29.86,NE,40,1.0,5.0,98,0.10,,,0.05,Wunderground v.1.15,2013-05-10 05:40:00,
2013-05-10 00:45:00,47.1,46.6,29.86,ENE,63,1.0,5.0,98,0.09,,,0.06,Wunderground v.1.15,2013-05-10 05:45:00,
2013-05-10 00:50:00,46.9,46.4,29.86,NNE,24,3.0,5.0,98,0.09,,,0.06,Wunderground v.1.15,2013-05-10 05:50:00,
2013-05-10 00:55:00,46.7,45.9,29.86,NNE,28,3.0,5.0,97,0.07,,,0.07,Wunderground v.1.15,2013-05-10 05:55:00,
2013-05-10 01:00:00,46.5,45.7,29.86,NE,56,3.0,3.0,97,0.09,,,0.08,Wunderground v.1.15,2013-05-10 06:00:00,
2013-05-10 01:10:00,46.3,45.8,29.85,NE,49,2.0,2.0,98,0.09,,,0.09,Wunderground v.1.15,2013-05-10 06:10:00,
2013-05-10 01:15:00,46.2,45.4,29.85,NE,50,2.0,2.0,97,0.10,,,0.10,Wunderground v.1.15,2013-05-10 06:15:00,
2013-05-10 01:20:00,46.1,45.3,29.85,NE,50,2.0,5.0,97,0.09,,,0.11,Wunderground v.1.15,2013-05-10 06:20:00,
2013-05-10 01:25:00,46.0,45.2,29.85,NE,41,2.0,5.0,97,0.11,,,0.12,Wunderground v.1.15,2013-05-10 06:25:00,
2013-05-10 01:30:00,45.8,45.0,29.85,NNE,30,1.0,4.0,97,0.10,,,0.12,Wunderground v.1.15,2013-05-10 06:30:00,
2013-05-10 01:35:00,45.6,44.8,29.85,NNE,27,2.0,5.0,97,0.09,,,0.13,Wunderground v.1.15,2013-05-10 06:35:00,
2013-05-10 01:40:00,45.4,44.6,29.85,NE,40,3.0,7.0,97,0.12,,,0.14,Wunderground v.1.15,2013-05-10 06:40:00,
2013-05-10 01:45:00,45.2,44.4,29.85,NE,45,4.0,7.0,97,0.09,,,0.15,Wunderground v.1.15,2013-05-10 06:45:00,
2013-05-10 01:50:00,45.0,44.2,29.85,NNE,25,4.0,4.0,97,0.09,,,0.16,Wunderground v.1.15,2013-05-10 06:50:00,
2013-05-10 01:55:00,45.0,44.2,29.85,North,360,3.0,4.0,97,0.09,,,0.16,Wunderground v.1.15,2013-05-10 06:55:00,
2013-05-10 02:00:00,44.8,44.0,29.84,NE,45,3.0,6.0,97,0.07,,,0.17,Wunderground v.1.15,2013-05-10 07:00:00,
2013-05-10 02:05:00,44.6,43.8,29.85,NNE,25,4.0,7.0,97,0.07,,,0.17,Wunderground v.1.15,2013-05-10 07:05:00,
2013-05-10 02:10:00,44.4,43.6,29.84,NE,46,3.0,3.0,97,0.08,,,0.18,Wunderground v.1.15,2013-05-10 07:10:00,
2013-05-10 02:20:00,44.0,43.2,29.85,NE,35,3.0,3.0,97,0.08,,,0.19,Wunderground v.1.15,2013-05-10 07:20:00,
2013-05-10 02:25:00,43.9,43.1,29.85,NNE,22,4.0,7.0,97,0.08,,,0.20,Wunderground v.1.15,2013-05-10 07:25:00,
2013-05-10 02:30:00,43.7,42.9,29.85,NE,51,4.0,5.0,97,0.07,,,0.20,Wunderground v.1.15,2013-05-10 07:30:00,
2013-05-10 02:35:00,43.5,42.7,29.85,NNE,32,5.0,5.0,97,0.06,,,0.21,Wunderground v.1.15,2013-05-10 07:35:00,
2013-05-10 02:40:00,43.3,42.5,29.85,NNE,18,5.0,7.0,97,0.07,,,0.22,Wunderground v.1.15,2013-05-10 07:40:00,
2013-05-10 02:45:00,43.3,42.5,29.85,NE,38,4.0,7.0,97,0.07,,,0.22,Wunderground v.1.15,2013-05-10 07:45:00,
2013-05-10 02:49:00,43.1,42.3,29.85,NNE,30,4.0,8.0,97,0.09,,,0.23,Wunderground v.1.15,2013-05-10 07:49:00,
2013-05-10 02:54:00,42.9,42.1,29.85,NNE,23,5.0,8.0,97,0.12,,,0.24,Wunderground v.1.15,2013-05-10 07:54:00,
2013-05-10 03:00:00,42.8,42.0,29.85,NNE,28,4.0,5.0,97,0.07,,,0.25,Wunderground v.1.15,2013-05-10 08:00:00,
2013-05-10 04:30:00,42.2,41.7,29.85,NE,47,5.0,5.0,98,0.00,,,0.28,Wunderground v.1.15,2013-05-10 09:30:00,
2013-05-10 04:35:00,42.2,41.7,29.85,NNE,24,3.0,5.0,98,0.00,,,0.28,Wunderground v.1.15,2013-05-10 09:35:00,
2013-05-10 04:40:00,42.2,41.7,29.85,NNE,19,3.0,3.0,98,0.00,,,0.28,Wunderground v.1.15,2013-05-10 09:40:00,
2013-05-10 04:45:00,42.1,41.6,29.86,NNE,26,5.0,5.0,98,0.00,,,0.28,Wunderground v.1.15,2013-05-10 09:45:00,
2013-05-10 04:50:00,42.1,41.6,29.86,NNE,28,4.0,4.0,98,0.00,,,0.29,Wunderground v.1.15,2013-05-10 09:50:00,
2013-05-10 04:55:00,42.1,41.6,29.86,NE,34,4.0,6.0,98,0.00,,,0.29,Wunderground v.1.15,2013-05-10 09:55:00,
2013-05-10 05:00:00,42.1,41.6,29.87,NNE,12,5.0,5.0,98,0.00,,,0.29,Wunderground v.1.15,2013-05-10 10:00:00,
2013-05-10 05:05:00,42.0,41.5,29.87,NNE,30,4.0,5.0,98,0.00,,,0.29,Wunderground v.1.15,2013-05-10 10:05:00,
2013-05-10 05:10:00,42.0,41.5,29.88,NE,44,4.0,6.0,98,0.00,,,0.29,Wunderground v.1.15,2013-05-10 10:10:00,
2013-05-10 05:15:00,42.0,41.5,29.88,NE,38,4.0,6.0,98,0.00,,,0.29,Wunderground v.1.15,2013-05-10 10:15:00,
2013-05-10 05:20:00,41.9,41.1,29.88,NE,48,3.0,4.0,97,0.00,,,0.29,Wunderground v.1.15,2013-05-10 10:20:00,
2013-05-10 05:25:00,41.8,41.0,29.88,North,5,4.0,4.0,97,0.00,,,0.29,Wunderground v.1.15,2013-05-10 10:25:00,
2013-05-10 05:30:00,41.8,41.3,29.88,NE,48,4.0,4.0,98,0.00,,,0.29,Wunderground v.1.15,2013-05-10 10:30:00,
2013-05-10 05:35:00,41.8,41.3,29.89,NE,38,3.0,5.0,98,0.00,,,0.29,Wunderground v.1.15,2013-05-10 10:35:00,
2013-05-10 05:40:00,41.7,41.2,29.88,NNE,19,4.0,4.0,98,0.00,,,0.29,Wunderground v.1.15,2013-05-10 10:40:00,
2013-05-10 05:45:00,41.6,41.1,29.89,NE,34,5.0,5.0,98,0.00,,,0.29,Wunderground v.1.15,2013-05-10 10:45:00,
2013-05-10 05:49:00,41.7,41.2,29.89,North,5,4.0,6.0,98,0.00,,,0.30,Wunderground v.1.15,2013-05-10 10:49:00,
2013-05-10 06:00:00,41.6,40.8,29.88,NNE,31,4.0,4.0,97,0.00,,,0.30,Wunderground v.1.15,2013-05-10 11:00:00,
2013-05-10 06:04:00,41.5,40.7,29.88,NE,36,4.0,6.0,97,0.00,,,0.30,Wunderground v.1.15,2013-05-10 11:04:00,
2013-05-10 06:09:00,41.4,40.6,29.88,NE,49,4.0,6.0,97,0.00,,,0.30,Wunderground v.1.15,2013-05-10 11:09:00,
2013-05-10 06:14:00,41.3,40.5,29.88,NE,36,6.0,6.0,97,0.00,,,0.30,Wunderground v.1.15,2013-05-10 11:14:00,
2013-05-10 06:19:00,41.2,40.4,29.89,North,350,6.0,6.0,97,0.00,,,0.30,Wunderground v.1.15,2013-05-10 11:19:00,
2013-05-10 06:24:00,41.2,40.4,29.90,NE,39,4.0,6.0,97,0.00,,,0.31,Wunderground v.1.15,2013-05-10 11:24:00,
2013-05-10 06:29:00,41.3,40.5,29.90,NNE,13,3.0,3.0,97,0.00,,,0.31,Wunderground v.1.15,2013-05-10 11:29:00,
2013-05-10 06:35:00,41.3,40.5,29.90,NE,46,4.0,7.0,97,0.00,,,0.31,Wunderground v.1.15,2013-05-10 11:35:00,
2013-05-10 06:40:00,41.2,40.4,29.90,NE,37,5.0,5.0,97,0.00,,,0.31,Wunderground v.1.15,2013-05-10 11:40:00,
2013-05-10 06:45:00,41.1,40.3,29.90,NE,52,5.0,5.0,97,0.00,,,0.31,Wunderground v.1.15,2013-05-10 11:45:00,
2013-05-10 06:50:00,41.1,40.3,29.90,North,360,5.0,6.0,97,0.00,,,0.31,Wunderground v.1.15,2013-05-10 11:50:00,
2013-05-10 06:55:00,41.1,40.3,29.90,NNE,30,5.0,6.0,97,0.00,,,0.31,Wunderground v.1.15,2013-05-10 11:55:00,
2013-05-10 07:00:00,41.1,40.3,29.90,NNE,33,5.0,6.0,97,0.00,,,0.31,Wunderground v.1.15,2013-05-10 12:00:00,
2013-05-10 07:10:00,41.3,40.5,29.91,NNE,32,4.0,5.0,97,0.00,,,0.31,Wunderground v.1.15,2013-05-10 12:10:00,
2013-05-10 07:15:00,41.4,40.6,29.91,NNE,24,4.0,10.0,97,0.00,,,0.31,Wunderground v.1.15,2013-05-10 12:15:00,
2013-05-10 07:20:00,41.3,40.5,29.91,NE,51,6.0,6.0,97,0.00,,,0.31,Wunderground v.1.15,2013-05-10 12:20:00,
2013-05-10 07:25:00,41.4,40.6,29.91,NE,39,7.0,7.0,97,0.00,,,0.31,Wunderground v.1.15,2013-05-10 12:25:00,
2013-05-10 07:30:00,41.4,40.6,29.91,NE,35,5.0,5.0,97,0.00,,,0.31,Wunderground v.1.15,2013-05-10 12:30:00,
2013-05-10 07:35:00,41.6,40.8,29.92,NNE,23,3.0,5.0,97,0.00,,,0.31,Wunderground v.1.15,2013-05-10 12:35:00,
2013-05-10 07:40:00,41.7,40.9,29.91,NE,46,3.0,5.0,97,0.00,,,0.31,Wunderground v.1.15,2013-05-10 12:40:00,
2013-05-10 07:45:00,41.8,41.0,29.91,NNE,26,5.0,5.0,97,0.00,,,0.31,Wunderground v.1.15,2013-05-10 12:45:00,
2013-05-10 07:50:00,41.9,41.1,29.91,North,355,5.0,5.0,97,0.00,,,0.31,Wunderground v.1.15,2013-05-10 12:50:00,
2013-05-10 08:00:00,42.0,41.2,29.91,NE,34,5.0,5.0,97,0.00,,,0.31,Wunderground v.1.15,2013-05-10 13:00:00,
2013-05-10 08:05:00,42.1,41.3,29.91,NNE,28,4.0,5.0,97,0.00,,,0.31,Wunderground v.1.15,2013-05-10 13:05:00,
2013-05-10 08:10:00,42.1,41.3,29.91,NE,35,5.0,7.0,97,0.00,,,0.31,Wunderground v.1.15,2013-05-10 13:10:00,
2013-05-10 08:15:00,42.1,41.3,29.92,North,5,6.0,7.0,97,0.00,,,0.31,Wunderground v.1.15,2013-05-10 13:15:00,
2013-05-10 08:20:00,42.1,41.3,29.92,NE,42,5.0,5.0,97,0.00,,,0.31,Wunderground v.1.15,2013-05-10 13:20:00,
2013-05-10 08:29:00,41.9,40.8,29.92,NE,34,3.0,3.0,96,0.00,,,0.31,Wunderground v.1.15,2013-05-10 13:29:00,
2013-05-10 08:35:00,41.8,40.7,29.92,NNE,32,4.0,5.0,96,0.00,,,0.31,Wunderground v.1.15,2013-05-10 13:35:00,
2013-05-10 08:40:00,41.7,40.6,29.92,NE,50,5.0,5.0,96,0.00,,,0.31,Wunderground v.1.15,2013-05-10 13:40:00,
2013-05-10 08:45:00,41.7,40.6,29.92,NE,36,3.0,5.0,96,0.00,,,0.31,Wunderground v.1.15,2013-05-10 13:45:00,
2013-05-10 08:55:00,41.9,41.1,29.92,ENE,64,3.0,4.0,97,0.00,,,0.31,Wunderground v.1.15,2013-05-10 13:55:00,
2013-05-10 09:00:00,41.9,41.1,29.92,NNE,33,3.0,3.0,97,0.00,,,0.31,Wunderground v.1.15,2013-05-10 14:00:00,
2013-05-10 09:05:00,41.9,41.1,29.93,NE,34,3.0,6.0,97,0.00,,,0.31,Wunderground v.1.15,2013-05-10 14:05:00,
2013-05-10 09:10:00,41.9,40.8,29.93,North,9,4.0,6.0,96,0.00,,,0.31,Wunderground v.1.15,2013-05-10 14:10:00,
2013-05-10 09:15:00,41.8,40.7,29.93,NE,42,4.0,6.0,96,0.00,,,0.31,Wunderground v.1.15,2013-05-10 14:15:00,
2013-05-10 09:20:00,41.8,40.7,29.93,NE,47,4.0,5.0,96,0.00,,,0.31,Wunderground v.1.15,2013-05-10 14:20:00,
2013-05-10 09:25:00,41.9,40.8,29.93,NE,38,4.0,6.0,96,0.00,,,0.31,Wunderground v.1.15,2013-05-10 14:25:00,
2013-05-10 09:30:00,42.0,40.9,29.94,NE,37,4.0,4.0,96,0.00,,,0.31,Wunderground v.1.15,2013-05-10 14:30:00,
2013-05-10 09:35:00,42.0,40.9,29.94,NNE,26,3.0,4.0,96,0.00,,,0.31,Wunderground v.1.15,2013-05-10 14:35:00,
2013-05-10 09:40:00,42.0,40.9,29.94,NNE,20,4.0,6.0,96,0.00,,,0.31,Wunderground v.1.15,2013-05-10 14:40:00,
2013-05-10 09:50:00,41.9,40.8,29.94,NE,38,3.0,4.0,96,0.00,,,0.31,Wunderground v.1.15,2013-05-10 14:50:00,
2013-05-10 09:55:00,42.0,40.9,29.94,ENE,69,3.0,4.0,96,0.00,,,0.31,Wunderground v.1.15,2013-05-10 14:55:00,
2013-05-10 10:00:00,42.2,41.4,29.94,NE,39,3.0,3.0,97,0.00,,,0.31,Wunderground v.1.15,2013-05-10 15:00:00,
2013-05-10 10:05:00,42.3,41.2,29.95,NNE,30,3.0,3.0,96,0.00,,,0.31,Wunderground v.1.15,2013-05-10 15:05:00,
2013-05-10 10:10:00,42.4,41.3,29.95,NNE,19,4.0,4.0,96,0.00,,,0.31,Wunderground v.1.15,2013-05-10 15:10:00,
2013-05-10 10:14:00,42.5,41.4,29.95,NNE,32,3.0,4.0,96,0.00,,,0.31,Wunderground v.1.15,2013-05-10 15:14:00,
2013-05-10 10:20:00,42.6,41.5,29.96,North,5,3.0,10.0,96,0.00,,,0.31,Wunderground v.1.15,2013-05-10 15:20:00,
2013-05-10 10:25:00,42.5,41.2,29.95,NE,54,4.0,10.0,95,0.00,,,0.31,Wunderground v.1.15,2013-05-10 15:25:00,
2013-05-10 10:30:00,42.4,41.3,29.95,NE,35,5.0,5.0,96,0.00,,,0.31,Wunderground v.1.15,2013-05-10 15:30:00,
2013-05-10 10:35:00,42.4,41.1,29.95,NE,36,4.0,8.0,95,0.00,,,0.31,Wunderground v.1.15,2013-05-10 15:35:00,
2013-05-10 10:40:00,42.4,41.1,29.96,NE,49,4.0,4.0,95,0.00,,,0.31,Wunderground v.1.15,2013-05-10 15:40:00,
2013-05-10 10:45:00,42.5,41.2,29.96,North,355,3.0,5.0,95,0.00,,,0.31,Wunderground v.1.15,2013-05-10 15:45:00,
2013-05-10 10:50:00,42.6,41.3,29.97,NE,38,3.0,3.0,95,0.00,,,0.31,Wunderground v.1.15,2013-05-10 15:50:00,
2013-05-10 10:55:00,42.5,41.2,29.97,NE,36,4.0,5.0,95,0.00,,,0.31,Wunderground v.1.15,2013-05-10 15:55:00,
2013-05-10 11:00:00,42.5,41.2,29.97,North,9,4.0,4.0,95,0.00,,,0.31,Wunderground v.1.15,2013-05-10 16:00:00,
2013-05-10 11:04:00,42.6,41.3,29.97,NNW,329,3.0,9.0,95,0.00,,,0.31,Wunderground v.1.15,2013-05-10 16:04:00,
2013-05-10 11:09:00,42.8,41.5,29.97,North,10,3.0,4.0,95,0.00,,,0.31,Wunderground v.1.15,2013-05-10 16:09:00,
2013-05-10 11:14:00,43.0,41.4,29.97,NNE,17,4.0,4.0,94,0.00,,,0.31,Wunderground v.1.15,2013-05-10 16:14:00,
2013-05-10 11:20:00,43.2,41.6,29.97,NE,39,4.0,4.0,94,0.00,,,0.31,Wunderground v.1.15,2013-05-10 16:20:00,
2013-05-10 11:25:00,43.4,41.8,29.97,NNE,26,3.0,4.0,94,0.00,,,0.31,Wunderground v.1.15,2013-05-10 16:25:00,
2013-05-10 11:30:00,43.5,41.9,29.97,North,9,3.0,3.0,94,0.00,,,0.31,Wunderground v.1.15,2013-05-10 16:30:00,
2013-05-10 11:35:00,43.6,41.7,29.97,North,349,4.0,4.0,93,0.00,,,0.31,Wunderground v.1.15,2013-05-10 16:35:00,
2013-05-10 11:40:00,43.6,42.0,29.97,NNE,14,3.0,3.0,94,0.00,,,0.31,Wunderground v.1.15,2013-05-10 16:40:00,
2013-05-10 11:45:00,43.7,41.8,29.98,NE,38,3.0,7.0,93,0.00,,,0.31,Wunderground v.1.15,2013-05-10 16:45:00,
2013-05-10 11:50:00,43.6,41.4,29.98,North,5,5.0,7.0,92,0.00,,,0.31,Wunderground v.1.15,2013-05-10 16:50:00,
2013-05-10 11:55:00,43.6,41.7,29.98,NE,34,5.0,7.0,93,0.00,,,0.31,Wunderground v.1.15,2013-05-10 16:55:00,
2013-05-10 12:00:00,43.8,41.9,29.98,NNE,26,5.0,5.0,93,0.00,,,0.31,Wunderground v.1.15,2013-05-10 17:00:00,
2013-05-10 12:10:00,44.1,42.2,29.98,North,5,3.0,4.0,93,0.00,,,0.31,Wunderground v.1.15,2013-05-10 17:10:00,
2013-05-10 12:15:00,44.3,42.1,29.98,North,9,3.0,4.0,92,0.00,,,0.31,Wunderground v.1.15,2013-05-10 17:15:00,
2013-05-10 12:20:00,44.3,42.1,29.98,NNE,24,3.0,6.0,92,0.00,,,0.31,Wunderground v.1.15,2013-05-10 17:20:00,
2013-05-10 12:25:00,44.3,41.8,29.98,NE,42,3.0,6.0,91,0.00,,,0.31,Wunderground v.1.15,2013-05-10 17:25:00,
2013-05-10 12:30:00,44.2,42.0,29.98,NE,45,3.0,3.0,92,0.00,,,0.31,Wunderground v.1.15,2013-05-10 17:30:00,
2013-05-10 12:35:00,44.3,42.1,29.98,NNE,30,2.0,3.0,92,0.00,,,0.31,Wunderground v.1.15,2013-05-10 17:35:00,
2013-05-10 12:40:00,44.4,42.2,29.98,NNE,33,2.0,4.0,92,0.00,,,0.31,Wunderground v.1.15,2013-05-10 17:40:00,
2013-05-10 12:45:00,44.4,42.2,29.98,NNE,32,3.0,4.0,92,0.00,,,0.31,Wunderground v.1.15,2013-05-10 17:45:00,
2013-05-10 12:50:00,44.3,42.1,29.98,NE,35,2.0,2.0,92,0.00,,,0.31,Wunderground v.1.15,2013-05-10 17:50:00,
2013-05-10 12:55:00,44.5,42.3,29.97,NNE,26,2.0,6.0,92,0.00,,,0.31,Wunderground v.1.15,2013-05-10 17:55:00,
2013-05-10 13:00:00,44.6,42.4,29.97,NE,48,2.0,2.0,92,0.00,,,0.31,Wunderground v.1.15,2013-05-10 18:00:00,
2013-05-10 13:04:00,44.9,42.7,29.97,NNW,343,3.0,7.0,92,0.00,,,0.31,Wunderground v.1.15,2013-05-10 18:04:00,
2013-05-10 13:09:00,45.2,43.0,29.97,NNE,32,3.0,3.0,92,0.00,,,0.31,Wunderground v.1.15,2013-05-10 18:09:00,
2013-05-10 13:14:00,45.6,43.1,29.97,NE,44,4.0,4.0,91,0.00,,,0.31,Wunderground v.1.15,2013-05-10 18:14:00,
2013-05-10 13:19:00,45.9,43.4,29.97,NNW,344,3.0,4.0,91,0.00,,,0.31,Wunderground v.1.15,2013-05-10 18:19:00,
2013-05-10 13:24:00,45.8,43.0,29.97,NNW,341,4.0,4.0,90,0.00,,,0.31,Wunderground v.1.15,2013-05-10 18:24:00,
2013-05-10 13:30:00,45.8,42.7,29.98,NE,35,5.0,5.0,89,0.00,,,0.31,Wunderground v.1.15,2013-05-10 18:30:00,
2013-05-10 13:35:00,45.8,42.7,29.98,NE,34,4.0,5.0,89,0.00,,,0.31,Wunderground v.1.15,2013-05-10 18:35:00,
2013-05-10 13:40:00,45.8,43.0,29.98,NNW,344,3.0,5.0,90,0.00,,,0.31,Wunderground v.1.15,2013-05-10 18:40:00,
2013-05-10 13:45:00,46.0,42.9,29.98,NNE,31,3.0,5.0,89,0.00,,,0.31,Wunderground v.1.15,2013-05-10 18:45:00,
2013-05-10 13:50:00,46.1,43.0,29.98,NNE,13,3.0,3.0,89,0.00,,,0.31,Wunderground v.1.15,2013-05-10 18:50:00,
2013-05-10 13:55:00,46.5,43.7,29.98,NNE,28,3.0,3.0,90,0.00,,,0.31,Wunderground v.1.15,2013-05-10 18:55:00,
2013-05-10 14:00:00,46.6,43.5,29.98,NE,34,3.0,4.0,89,0.00,,,0.31,Wunderground v.1.15,2013-05-10 19:00:00,
2013-05-10 14:05:00,46.7,43.6,29.98,NNE,17,3.0,4.0,89,0.00,,,0.31,Wunderground v.1.15,2013-05-10 19:05:00,
2013-05-10 14:10:00,46.9,43.5,29.98,NNE,15,3.0,3.0,88,0.00,,,0.31,Wunderground v.1.15,2013-05-10 19:10:00,
2013-05-10 14:15:00,47.1,43.7,29.98,NNE,24,3.0,4.0,88,0.00,,,0.31,Wunderground v.1.15,2013-05-10 19:15:00,
2013-05-10 14:20:00,47.2,43.8,29.98,NE,35,3.0,3.0,88,0.00,,,0.31,Wunderground v.1.15,2013-05-10 19:20:00,
2013-05-10 14:25:00,47.3,43.9,29.98,NNW,338,3.0,3.0,88,0.00,,,0.31,Wunderground v.1.15,2013-05-10 19:25:00,
2013-05-10 14:29:00,47.4,44.3,29.98,NNE,24,2.0,5.0,89,0.00,,,0.31,Wunderground v.1.15,2013-05-10 19:29:00,
2013-05-10 14:34:00,47.7,44.3,29.98,NNE,19,2.0,5.0,88,0.00,,,0.31,Wunderground v.1.15,2013-05-10 19:34:00,
2013-05-10 14:39:00,47.7,44.6,29.98,NNE,32,4.0,4.0,89,0.00,,,0.31,Wunderground v.1.15,2013-05-10 19:39:00,
2013-05-10 14:44:00,48.0,44.6,29.98,NNE,28,3.0,4.0,88,0.00,,,0.31,Wunderground v.1.15,2013-05-10 19:44:00,
2013-05-10 14:49:00,48.4,45.0,29.98,NNE,28,2.0,4.0,88,0.00,,,0.31,Wunderground v.1.15,2013-05-10 19:49:00,
2013-05-10 14:54:00,48.9,45.2,29.98,North,5,2.0,4.0,87,0.00,,,0.31,Wunderground v.1.15,2013-05-10 19:54:00,
2013-05-10 15:00:00,49.4,45.7,29.97,NE,36,3.0,4.0,87,0.00,,,0.31,Wunderground v.1.15,2013-05-10 20:00:00,
2013-05-10 15:04:00,49.8,45.8,29.97,NNE,33,3.0,4.0,86,0.00,,,0.31,Wunderground v.1.15,2013-05-10 20:04:00,
2013-05-10 15:10:00,49.9,45.6,29.97,NE,36,3.0,3.0,85,0.00,,,0.31,Wunderground v.1.15,2013-05-10 20:10:00,
2013-05-10 15:15:00,49.8,45.8,29.97,NNW,335,3.0,3.0,86,0.00,,,0.31,Wunderground v.1.15,2013-05-10 20:15:00,
2013-05-10 15:20:00,49.9,45.6,29.97,North,350,3.0,9.0,85,0.00,,,0.31,Wunderground v.1.15,2013-05-10 20:20:00,
2013-05-10 15:25:00,49.7,45.4,29.97,North,360,4.0,9.0,85,0.00,,,0.31,Wunderground v.1.15,2013-05-10 20:25:00,
2013-05-10 15:30:00,49.7,45.4,29.97,North,360,3.0,3.0,85,0.00,,,0.31,Wunderground v.1.15,2013-05-10 20:30:00,
2013-05-10 15:40:00,49.6,45.6,29.97,NNE,33,1.0,4.0,86,0.00,,,0.31,Wunderground v.1.15,2013-05-10 20:40:00,
2013-05-10 15:45:00,49.7,46.0,29.97,North,360,1.0,4.0,87,0.00,,,0.31,Wunderground v.1.15,2013-05-10 20:45:00,
2013-05-10 15:50:00,49.8,45.8,29.97,North,355,3.0,5.0,86,0.00,,,0.31,Wunderground v.1.15,2013-05-10 20:50:00,
2013-05-10 15:55:00,49.7,45.4,29.97,NNE,15,4.0,5.0,85,0.00,,,0.31,Wunderground v.1.15,2013-05-10 20:55:00,
2013-05-10 16:00:00,49.7,45.4,29.97,NE,34,3.0,3.0,85,0.00,,,0.31,Wunderground v.1.15,2013-05-10 21:00:00,
2013-05-10 16:04:00,49.8,46.1,29.97,NNE,27,1.0,3.0,87,0.00,,,0.31,Wunderground v.1.15,2013-05-10 21:04:00,
2013-05-10 16:10:00,50.0,46.0,29.97,NE,34,2.0,2.0,86,0.00,,,0.31,Wunderground v.1.15,2013-05-10 21:10:00,
2013-05-10 16:15:00,50.1,46.1,29.96,NNW,348,3.0,3.0,86,0.00,,,0.31,Wunderground v.1.15,2013-05-10 21:15:00,
2013-05-10 16:20:00,50.2,45.9,29.96,NNE,26,3.0,3.0,85,0.00,,,0.31,Wunderground v.1.15,2013-05-10 21:20:00,
2013-05-10 16:25:00,50.3,46.3,29.96,North,360,2.0,3.0,86,0.00,,,0.31,Wunderground v.1.15,2013-05-10 21:25:00,
2013-05-10 16:30:00,50.5,46.5,29.96,North,360,1.0,1.0,86,0.00,,,0.31,Wunderground v.1.15,2013-05-10 21:30:00,
2013-05-10 16:35:00,50.7,46.4,29.96,NNW,346,2.0,2.0,85,0.00,,,0.31,Wunderground v.1.15,2013-05-10 21:35:00,
2013-05-10 16:40:00,50.8,46.5,29.97,North,350,2.0,2.0,85,0.00,,,0.31,Wunderground v.1.15,2013-05-10 21:40:00,
2013-05-10 16:45:00,50.9,46.6,29.96,NNE,21,2.0,5.0,85,0.00,,,0.31,Wunderground v.1.15,2013-05-10 21:45:00,
2013-05-10 16:50:00,51.0,46.3,29.96,NE,35,2.0,2.0,84,0.00,,,0.31,Wunderground v.1.15,2013-05-10 21:50:00,
2013-05-10 16:55:00,51.0,46.3,29.96,North,360,2.0,2.0,84,0.00,,,0.31,Wunderground v.1.15,2013-05-10 21:55:00,
2013-05-10 17:00:00,51.1,46.7,29.96,NNE,32,1.0,4.0,85,0.00,,,0.31,Wunderground v.1.15,2013-05-10 22:00:00,
2013-05-10 17:05:00,51.2,46.5,29.96,NE,37,2.0,4.0,84,0.00,,,0.31,Wunderground v.1.15,2013-05-10 22:05:00,
2013-05-10 17:15:00,51.3,46.9,29.96,NE,38,2.0,4.0,85,0.00,,,0.31,Wunderground v.1.15,2013-05-10 22:15:00,
2013-05-10 17:20:00,51.4,47.0,29.96,NNE,33,1.0,1.0,85,0.00,,,0.31,Wunderground v.1.15,2013-05-10 22:20:00,
2013-05-10 17:25:00,51.5,46.8,29.96,NNE,26,2.0,4.0,84,0.00,,,0.31,Wunderground v.1.15,2013-05-10 22:25:00,
2013-05-10 17:30:00,51.5,47.1,29.96,NNE,27,1.0,1.0,85,0.00,,,0.31,Wunderground v.1.15,2013-05-10 22:30:00,
2013-05-10 17:35:00,51.5,46.8,29.96,North,355,2.0,2.0,84,0.00,,,0.31,Wunderground v.1.15,2013-05-10 22:35:00,
2013-05-10 17:40:00,51.5,46.8,29.96,NNW,335,2.0,8.0,84,0.00,,,0.31,Wunderground v.1.15,2013-05-10 22:40:00,
2013-05-10 17:44:00,51.6,46.9,29.96,NNW,348,2.0,8.0,84,0.00,,,0.31,Wunderground v.1.15,2013-05-10 22:44:00,
2013-05-10 17:49:00,51.6,46.9,29.96,North,355,2.0,8.0,84,0.00,,,0.31,Wunderground v.1.15,2013-05-10 22:49:00,
2013-05-10 17:55:00,51.7,47.0,29.96,NNE,31,2.0,8.0,84,0.00,,,0.31,Wunderground v.1.15,2013-05-10 22:55:00,
2013-05-10 18:00:00,51.7,47.0,29.96,North,11,2.0,2.0,84,0.00,,,0.31,Wunderground v.1.15,2013-05-10 23:00:00,
2013-05-10 18:05:00,51.7,47.0,29.96,North,355,2.0,2.0,84,0.00,,,0.31,Wunderground v.1.15,2013-05-10 23:05:00,
2013-05-10 18:10:00,51.6,46.9,29.97,North,351,2.0,5.0,84,0.00,,,0.31,Wunderground v.1.15,2013-05-10 23:10:00,
2013-05-10 18:14:00,51.7,47.0,29.96,NNW,340,1.0,5.0,84,0.00,,,0.31,Wunderground v.1.15,2013-05-10 23:14:00,
2013-05-10 18:20:00,51.6,47.2,29.96,NNW,346,1.0,2.0,85,0.00,,,0.31,Wunderground v.1.15,2013-05-10 23:20:00,
2013-05-10 18:25:00,51.6,46.9,29.96,North,349,1.0,2.0,84,0.00,,,0.31,Wunderground v.1.15,2013-05-10 23:25:00,
2013-05-10 18:30:00,51.7,47.0,29.96,North,9,1.0,1.0,84,0.00,,,0.31,Wunderground v.1.15,2013-05-10 23:30:00,
2013-05-10 18:35:00,51.7,47.0,29.96,NNW,342,1.0,1.0,84,0.00,,,0.31,Wunderground v.1.15,2013-05-10 23:35:00,
2013-05-10 18:40:00,51.7,47.0,29.96,NNW,342,1.0,1.0,84,0.00,,,0.31,Wunderground v.1.15,2013-05-10 23:40:00,
2013-05-10 18:45:00,51.7,47.0,29.96,NNW,342,0.0,1.0,84,0.00,,,0.31,Wunderground v.1.15,2013-05-10 23:45:00,
2013-05-10 18:50:00,51.8,47.1,29.96,NNW,348,1.0,1.0,84,0.00,,,0.31,Wunderground v.1.15,2013-05-10 23:50:00,
2013-05-10 18:55:00,51.8,47.1,29.96,NNW,348,1.0,1.0,84,0.00,,,0.31,Wunderground v.1.15,2013-05-10 23:55:00,
2013-05-10 19:00:00,51.8,47.1,29.95,NNW,348,0.0,0.0,84,0.00,,,0.31,Wunderground v.1.15,2013-05-11 00:00:00,
2013-05-10 19:05:00,51.8,47.1,29.95,NNW,346,1.0,4.0,84,0.00,,,0.31,Wunderground v.1.15,2013-05-11 00:05:00,
2013-05-10 19:10:00,51.8,46.8,29.95,NNW,348,1.0,1.0,83,0.00,,,0.31,Wunderground v.1.15,2013-05-11 00:10:00,
2013-05-10 19:15:00,51.8,47.1,29.95,NNW,348,1.0,1.0,84,0.00,,,0.31,Wunderground v.1.15,2013-05-11 00:15:00,
2013-05-10 19:20:00,51.7,47.0,29.95,NNW,348,0.0,0.0,84,0.00,,,0.31,Wunderground v.1.15,2013-05-11 00:20:00,
2013-05-10 19:25:00,51.7,47.0,29.95,NNW,348,0.0,2.0,84,0.00,,,0.31,Wunderground v.1.15,2013-05-11 00:25:00,
2013-05-10 19:30:00,51.6,46.9,29.95,NNW,348,0.0,0.0,84,0.00,,,0.31,Wunderground v.1.15,2013-05-11 00:30:00,
2013-05-10 19:35:00,51.5,46.8,29.95,NNW,348,1.0,1.0,84,0.00,,,0.31,Wunderground v.1.15,2013-05-11 00:35:00,
2013-05-10 19:40:00,51.3,46.9,29.95,NNW,348,1.0,1.0,85,0.00,,,0.31,Wunderground v.1.15,2013-05-11 00:40:00,
2013-05-10 19:44:00,51.1,46.7,29.95,NNW,348,1.0,1.0,85,0.00,,,0.31,Wunderground v.1.15,2013-05-11 00:44:00,
2013-05-10 19:50:00,50.9,46.6,29.95,NNW,348,0.0,0.0,85,0.00,,,0.31,Wunderground v.1.15,2013-05-11 00:50:00,
2013-05-10 19:55:00,50.7,46.7,29.95,NNW,348,0.0,0.0,86,0.00,,,0.31,Wunderground v.1.15,2013-05-11 00:55:00,
2013-05-10 20:00:00,50.5,46.5,29.94,NNW,348,0.0,0.0,86,0.00,,,0.31,Wunderground v.1.15,2013-05-11 01:00:00,
2013-05-10 20:04:00,50.3,46.3,29.95,NNW,348,0.0,0.0,86,0.00,,,0.31,Wunderground v.1.15,2013-05-11 01:04:00,
2013-05-10 20:09:00,50.1,46.4,29.94,NNW,348,0.0,0.0,87,0.00,,,0.31,Wunderground v.1.15,2013-05-11 01:09:00,
2013-05-10 20:15:00,50.0,46.3,29.95,NNW,348,0.0,0.0,87,0.00,,,0.31,Wunderground v.1.15,2013-05-11 01:15:00,
2013-05-10 20:20:00,49.8,46.4,29.95,NNW,348,0.0,0.0,88,0.00,,,0.31,Wunderground v.1.15,2013-05-11 01:20:00,
2013-05-10 20:25:00,49.6,47.4,29.95,NNW,348,0.0,0.0,92,0.00,,,0.31,Wunderground v.1.15,2013-05-11 01:25:00,
2013-05-10 20:30:00,49.5,46.4,29.95,NNW,348,0.0,0.0,89,0.00,,,0.31,Wunderground v.1.15,2013-05-11 01:30:00,
2013-05-10 20:35:00,49.4,46.3,29.95,NNW,348,0.0,0.0,89,0.00,,,0.31,Wunderground v.1.15,2013-05-11 01:35:00,
2013-05-10 20:40:00,49.3,46.5,29.96,NNW,348,0.0,0.0,90,0.00,,,0.31,Wunderground v.1.15,2013-05-11 01:40:00,
2013-05-10 20:45:00,49.2,46.7,29.96,NNW,348,0.0,0.0,91,0.00,,,0.31,Wunderground v.1.15,2013-05-11 01:45:00,
2013-05-10 20:50:00,49.2,46.7,29.96,NNW,348,0.0,0.0,91,0.00,,,0.31,Wunderground v.1.15,2013-05-11 01:50:00,
2013-05-10 20:55:00,49.2,46.7,29.97,NNW,348,0.0,0.0,91,0.00,,,0.31,Wunderground v.1.15,2013-05-11 01:55:00,
2013-05-10 21:00:00,49.2,46.7,29.97,NNW,348,0.0,0.0,91,0.00,,,0.31,Wunderground v.1.15,2013-05-11 02:00:00,
2013-05-10 21:10:00,49.3,47.1,29.97,NNW,348,0.0,0.0,92,0.00,,,0.31,Wunderground v.1.15,2013-05-11 02:10:00,
2013-05-10 21:15:00,49.3,47.1,29.97,NNW,348,0.0,0.0,92,0.00,,,0.31,Wunderground v.1.15,2013-05-11 02:15:00,
2013-05-10 21:20:00,49.3,47.1,29.97,NNW,348,0.0,0.0,92,0.00,,,0.31,Wunderground v.1.15,2013-05-11 02:20:00,
2013-05-10 21:25:00,49.2,46.7,29.97,NNW,348,0.0,0.0,91,0.00,,,0.31,Wunderground v.1.15,2013-05-11 02:25:00,
2013-05-10 21:30:00,49.2,46.7,29.97,NNW,348,0.0,0.0,91,0.00,,,0.31,Wunderground v.1.15,2013-05-11 02:30:00,
2013-05-10 21:35:00,49.1,46.6,29.97,NNW,348,0.0,0.0,91,0.00,,,0.31,Wunderground v.1.15,2013-05-11 02:35:00,
2013-05-10 21:40:00,48.8,46.3,29.97,NNW,348,0.0,0.0,91,0.00,,,0.31,Wunderground v.1.15,2013-05-11 02:40:00,
2013-05-10 21:44:00,48.6,46.1,29.97,NNW,348,0.0,0.0,91,0.00,,,0.31,Wunderground v.1.15,2013-05-11 02:44:00,
2013-05-10 21:55:00,48.0,45.5,29.97,NNW,348,0.0,0.0,91,0.00,,,0.31,Wunderground v.1.15,2013-05-11 02:55:00,
2013-05-10 22:00:00,47.7,45.5,29.96,NNW,348,0.0,0.0,92,0.00,,,0.31,Wunderground v.1.15,2013-05-11 03:00:00,
2013-05-10 22:04:00,47.5,45.3,29.97,NNW,348,0.0,0.0,92,0.00,,,0.31,Wunderground v.1.15,2013-05-11 03:04:00,
2013-05-10 22:09:00,47.3,45.4,29.97,NNW,348,0.0,1.0,93,0.00,,,0.31,Wunderground v.1.15,2013-05-11 03:09:00,
2013-05-10 22:14:00,47.1,45.2,29.97,NNW,348,0.0,1.0,93,0.00,,,0.31,Wunderground v.1.15,2013-05-11 03:14:00,
2013-05-10 22:20:00,46.9,45.0,29.97,NNW,348,0.0,0.0,93,0.00,,,0.31,Wunderground v.1.15,2013-05-11 03:20:00,
2013-05-10 22:25:00,46.7,44.8,29.97,NNW,348,0.0,0.0,93,0.00,,,0.31,Wunderground v.1.15,2013-05-11 03:25:00,
2013-05-10 22:30:00,46.5,44.6,29.96,NNW,348,0.0,0.0,93,0.00,,,0.31,Wunderground v.1.15,2013-05-11 03:30:00,
2013-05-10 22:35:00,46.3,44.4,29.96,NNW,348,0.0,0.0,93,0.00,,,0.31,Wunderground v.1.15,2013-05-11 03:35:00,
2013-05-10 22:40:00,46.1,44.5,29.96,NNW,348,0.0,0.0,94,0.00,,,0.31,Wunderground v.1.15,2013-05-11 03:40:00,
2013-05-10 22:45:00,45.9,44.3,29.96,NNW,348,0.0,0.0,94,0.00,,,0.31,Wunderground v.1.15,2013-05-11 03:45:00,
2013-05-10 22:50:00,45.8,44.2,29.96,NNW,348,0.0,0.0,94,0.00,,,0.31,Wunderground v.1.15,2013-05-11 03:50:00,
2013-05-10 22:55:00,45.7,44.4,29.96,NNW,348,0.0,0.0,95,0.00,,,0.31,Wunderground v.1.15,2013-05-11 03:55:00,
2013-05-10 23:00:00,45.5,44.2,29.96,NNW,348,0.0,0.0,95,0.00,,,0.31,Wunderground v.1.15,2013-05-11 04:00:00,
2013-05-10 23:05:00,45.4,44.1,29.95,NNW,348,0.0,0.0,95,0.00,,,0.31,Wunderground v.1.15,2013-05-11 04:05:00,
2013-05-10 23:10:00,45.2,43.9,29.95,NNW,348,0.0,0.0,95,0.00,,,0.31,Wunderground v.1.15,2013-05-11 04:10:00,
2013-05-10 23:15:00,45.2,43.9,29.95,NNW,348,0.0,0.0,95,0.00,,,0.31,Wunderground v.1.15,2013-05-11 04:15:00,
2013-05-10 23:20:00,45.0,43.7,29.95,NNW,348,0.0,0.0,95,0.00,,,0.31,Wunderground v.1.15,2013-05-11 04:20:00,
2013-05-10 23:25:00,44.9,43.6,29.95,NNW,348,0.0,0.0,95,0.00,,,0.31,Wunderground v.1.15,2013-05-11 04:25:00,
2013-05-10 23:30:00,44.7,43.4,29.95,NNW,348,0.0,0.0,95,0.00,,,0.31,Wunderground v.1.15,2013-05-11 04:30:00,
2013-05-10 23:35:00,44.5,43.2,29.95,NNW,348,0.0,0.0,95,0.00,,,0.31,Wunderground v.1.15,2013-05-11 04:35:00,
2013-05-10 23:40:00,44.2,42.9,29.95,NNW,348,0.0,0.0,95,0.00,,,0.31,Wunderground v.1.15,2013-05-11 04:40:00,
2013-05-10 23:45:00,43.9,42.6,29.95,NNW,348,0.0,0.0,95,0.00,,,0.31,Wunderground v.1.15,2013-05-11 04:45:00,
2013-05-10 23:50:00,43.7,42.4,29.94,NNW,348,0.0,0.0,95,0.00,,,0.31,Wunderground v.1.15,2013-05-11 04:50:00,
2013-05-10 23:55:00,43.5,42.2,29.94,NNW,348,0.0,0.0,95,0.00,,,0.31,Wunderground v.1.15,2013-05-11 04:55:00,